FW1286 Weather Reports


Display with metric or nautical units.
time (UTC)temp
F
wind
direction
speed
MPH
gust
MPH
rain 1hr
in
rain 24hr
in
rain mn
in
humidity
%
barometer
mb
20260506142810 62 300 8.0 18.0 0.00 0.02 0.02 95 1010.8
20260506135606 64 334 7.0 14.0 0.00 0.02 0.02 95 1009.7
20260506133443 65 332 8.0 11.0 0.00 0.02 0.02 96 1009.4
20260506132419 66 346 7.0 11.0 0.00 0.02 0.02 96 1009.3
20260506131359 67 318 6.0 14.0 0.00 0.02 0.02 96 1009.2
20260506130337 68 304 5.0 14.0 0.00 0.02 0.02 95 1008.8
20260506125341 73 348 0.0 3.0 0.00 0.02 0.02 97 1008.3
20260506124402 72 284 0.0 1.0 0.00 0.02 0.02 97 1008.2
20260506123401 72 284 0.0 0.0 0.00 0.01 0.01 96 1008.3
20260506121252 72 148 0.0 1.0 0.00 0.01 0.01 96 1007.9
20260506120240 72 148 0.0 0.0 0.00 0.01 0.01 96 1007.8
20260506115244 72 148 0.0 0.0 0.00 0.01 0.01 95 1007.8
20260506114239 72 148 0.0 0.0 0.00 0.01 0.01 96 1007.7
20260506113213 73 148 0.0 2.0 0.00 0.01 0.01 95 1007.8
20260506111012 73 148 0.0 0.0 0.00 0.01 0.01 95 1008.0
20260506110037 73 148 0.0 2.0 0.00 0.01 0.01 95 1008.0
20260506103913 74 148 0.0 3.0 0.00 0.01 0.01 95 1007.8
20260506102852 74 148 0.0 3.0 0.00 0.01 0.01 94 1007.8
20260506101858 74 148 0.0 1.0 0.00 0.00 0.00 94 1007.5
20260506100907 74 148 0.0 1.0 0.00 0.00 0.00 93 1007.6
20260506095912 74 148 0.0 0.0 0.00 0.00 0.00 93 1007.5
20260506094912 74 148 0.0 1.0 0.00 0.00 0.00 93 1007.2
20260506093849 74 148 0.0 0.0 0.00 0.00 0.00 92 1007.2
20260506092844 74 148 0.0 0.0 0.00 0.00 0.00 92 1007.1
20260506091828 75 103 1.0 4.0 0.00 0.00 0.00 92 1006.8
20260506090758 75 136 0.0 5.0 0.00 0.00 0.00 91 1006.8
20260506083523 75 138 2.0 10.0 0.00 0.00 0.00 91 1006.6
20260506082449 75 136 3.0 9.0 0.00 0.00 0.00 91 1006.6
20260506081452 75 121 3.0 10.0 0.00 0.00 0.00 91 1006.6
20260506080426 75 150 4.0 10.0 0.00 0.00 0.00 91 1006.6
20260506073400 75 175 5.0 10.0 0.00 0.00 0.00 91 1006.7
20260506072404 75 126 4.0 10.0 0.00 0.00 0.00 91 1006.9
20260506071404 75 149 3.0 10.0 0.00 0.00 0.00 91 1007.0
20260506070411 75 211 4.0 11.0 0.00 0.00 0.00 91 1006.8
20260506062258 75 110 5.0 15.0 0.00 0.00 0.00 91 1006.5
20260506061230 75 94 5.0 12.0 0.00 0.00 0.00 91 1006.6
20260506060157 75 123 5.0 14.0 0.00 0.00 0.00 91 1006.4
20260506050932 75 104 5.0 12.0 0.00 0.00 0.00 91 1006.6
20260506044943 75 132 4.0 8.0 0.00 0.00 0.00 91 1006.5
20260506043946 75 107 3.0 8.0 0.00 0.00 0.00 91 1006.6
20260506042954 75 101 3.0 8.0 0.00 0.00 0.00 90 1006.6
20260506042015 75 115 2.0 8.0 0.00 0.00 0.00 90 1006.5
20260506041038 75 96 2.0 5.0 0.00 0.00 0.00 89 1006.4
20260506040053 76 105 1.0 4.0 0.00 0.00 0.00 89 1006.4
20260506035035 76 113 2.0 5.0 0.00 0.00 0.00 89 1006.6
20260506034027 76 140 1.0 5.0 0.00 0.00 0.00 89 1006.2
20260506033015 76 130 2.0 4.0 0.00 0.00 0.00 88 1005.9
20260506032017 76 119 1.0 4.0 0.00 0.00 0.00 88 1006.2
20260506031008 76 84 0.0 5.0 0.00 0.00 0.00 87 1006.1
20260506025953 76 91 2.0 5.0 0.00 0.00 0.00 87 1005.6
20260506024954 76 84 1.0 5.0 0.00 0.00 0.00 87 1005.7
20260506023948 77 89 1.0 4.0 0.00 0.00 0.00 86 1005.4
20260506022938 77 126 1.0 4.0 0.00 0.00 0.00 85 1005.4
20260506021938 77 105 1.0 4.0 0.00 0.00 0.00 84 1005.2
20260506020914 77 85 1.0 5.0 0.00 0.00 0.00 83 1005.0
20260506015846 78 113 1.0 5.0 0.00 0.00 0.00 83 1004.9
20260506014821 78 128 2.0 5.0 0.00 0.00 0.00 82 1004.7
20260506012709 79 124 4.0 8.0 0.00 0.00 0.00 81 1004.4
20260506011648 79 120 3.0 8.0 0.00 0.00 0.00 80 1004.4
20260506010631 80 122 4.0 8.0 0.00 0.00 0.00 79 1004.5
20260506005623 81 113 4.0 10.0 0.00 0.00 0.00 79 1004.3
20260506004636 81 114 4.0 12.0 0.00 0.00 0.00 78 1004.3
20260506003609 82 113 5.0 12.0 0.00 0.00 0.00 77 1004.3
20260506002601 82 103 4.0 9.0 0.00 0.00 0.00 76 1004.3
20260506001532 83 127 5.0 11.0 0.00 0.00 0.00 76 1004.3
20260506000517 82 105 4.0 12.0 0.00 0.00 0.00 77 1004.5
20260505235511 82 127 5.0 12.0 0.00 0.00 0.00 76 1004.4
20260505234524 83 121 5.0 9.0 0.00 0.00 0.00 75 1004.5
20260505232358 84 117 5.0 11.0 0.00 0.00 0.00 74 1004.2
20260505231414 84 102 5.0 10.0 0.00 0.00 0.00 74 1004.1
20260505230357 84 109 6.0 10.0 0.00 0.00 0.00 73 1003.9
20260505225349 85 118 3.0 11.0 0.00 0.00 0.00 73 1003.9
20260505224407 85 114 5.0 11.0 0.00 0.00 0.00 73 1003.9
20260505223429 85 104 5.0 10.0 0.00 0.00 0.00 72 1003.8
20260505222413 85 105 5.0 11.0 0.00 0.00 0.00 72 1003.9
20260505221351 85 133 5.0 13.0 0.00 0.00 0.00 71 1004.0
20260505220327 86 117 6.0 13.0 0.00 0.00 0.00 71 1003.8
20260505215338 86 147 6.0 11.0 0.00 0.00 0.00 69 1004.0
20260505214351 87 128 4.0 9.0 0.00 0.00 0.00 69 1004.2
20260505213359 86 74 5.0 11.0 0.00 0.00 0.00 70 1004.1
20260505212344 86 141 6.0 12.0 0.00 0.00 0.00 69 1004.1
20260505211321 86 119 6.0 12.0 0.00 0.00 0.00 70 1004.2
20260505210321 86 104 6.0 11.0 0.00 0.00 0.00 70 1004.4
20260505205311 86 134 5.0 12.0 0.00 0.00 0.00 71 1004.8
20260505204322 86 98 6.0 14.0 0.00 0.00 0.00 70 1004.7
20260505203313 85 114 5.0 14.0 0.00 0.00 0.00 71 1004.8
20260505202258 85 84 7.0 13.0 0.00 0.00 0.00 70 1004.9
20260505201313 85 115 6.0 15.0 0.00 0.00 0.00 71 1005.0
20260505200322 84 148 5.0 15.0 0.00 0.00 0.00 73 1005.5
20260505195329 84 166 6.0 13.0 0.00 0.00 0.00 72 1005.4
20260505194354 84 92 5.0 13.0 0.00 0.00 0.00 72 1005.4
20260505193404 84 107 6.0 13.0 0.00 0.00 0.00 73 1005.5
20260505192408 83 163 6.0 13.0 0.00 0.00 0.00 73 1005.6
20260505191421 83 96 6.0 13.0 0.00 0.00 0.00 73 1005.7
20260505190348 83 146 6.0 13.0 0.00 0.00 0.00 75 1005.9
20260505184227 81 112 7.0 19.0 0.00 0.00 0.00 77 1006.2
20260505183212 80 163 9.0 19.0 0.00 0.00 0.00 76 1006.3
20260505182215 80 158 8.0 17.0 0.00 0.00 0.00 78 1006.5
20260505181213 79 110 8.0 17.0 0.00 0.00 0.00 78 1006.7
20260505180222 78 122 7.0 18.0 0.00 0.00 0.00 80 1006.9
20260505175246 78 184 7.0 18.0 0.00 0.00 0.00 80 1006.9
20260505174221 78 138 7.0 15.0 0.00 0.00 0.00 81 1007.0
20260505173233 78 189 8.0 18.0 0.00 0.00 0.00 81 1007.2
20260505172213 76 189 9.0 18.0 0.00 0.00 0.00 83 1007.2
20260505171229 76 187 9.0 17.0 0.00 0.00 0.00 84 1007.3
20260505170157 75 155 8.0 18.0 0.00 0.00 0.00 85 1007.2
20260505165124 74 138 10.0 18.0 0.00 0.00 0.00 86 1007.3
20260505164104 74 187 8.0 18.0 0.00 0.00 0.00 87 1007.3
20260505163049 74 175 9.0 18.0 0.00 0.00 0.00 87 1007.4
20260505162050 74 182 7.0 17.0 0.00 0.00 0.00 87 1007.5
20260505161115 73 145 7.0 17.0 0.00 0.00 0.00 88 1007.4
20260505152946 73 119 5.0 11.0 0.00 0.00 0.00 89 1007.1
20260505151921 72 126 5.0 10.0 0.00 0.00 0.00 89 1007.3